Location: Unspecified
(0.0000°N, 0.0000°E)
Time: 18:44:34
(UTC-01:00)

Amateur Radio Satellites - All Passes

Search period start: 19 November 2017 18:14
Search period end: 20 November 2017 18:14
Location: Unspecified, 0.0000°N, 0.0000°E

Satellite Date Start Highest point End Downlink Frequencies (MHz)
Time Altitude Azimuth
FALCONSAT 3 19 Nov 18:17:31 18:20:48 30° 217° (SW) 18:24:06 435.103
CUBEBUG 2 19 Nov 18:25:31 18:30:04 47° 258° (WSW) 18:34:34 437.445
SEEDS 19 Nov 18:26:02 18:29:54 39° 259° (WSW) 18:33:46 437.485
nSIGHT-1 19 Nov 18:28:54 18:30:58 16° 306° (NW) 18:33:01 .
AO-73 19 Nov 18:38:08 18:42:26 46° 79° (E) 18:46:38 145.935
AAUSAT CUBESAT 2 19 Nov 18:38:50 18:42:56 79° 258° (WSW) 18:47:01 437.432
RS-15 19 Nov 18:45:59 18:53:08 18° 293° (WNW) 19:00:26 29.354- 29.394
STRAND 1 19 Nov 18:47:03 18:51:30 31° 283° (WNW) 18:55:57 437.568
XW-2A 19 Nov 18:52:44 18:55:39 28° 259° (WSW) 18:58:33 145.665 - 145.685
Oscar 11 19 Nov 18:57:00 19:01:10 49° 79° (ENE) 19:05:18 .
SO-50 19 Nov 19:01:44 19:05:36 28° 112° (ESE) 19:09:24 436.795
HO-68 19 Nov 19:13:27 19:17:32 16° 255° (WSW) 19:21:38 435.675
JUGNU 19 Nov 19:15:06 19:19:25 21° 16° (NNE) 19:23:45 437.505
ZACube-1 19 Nov 19:22:04 19:26:10 34° 258° (WSW) 19:30:12 437.345
FO-29 19 Nov 19:24:51 19:32:18 84° 282° (WNW) 19:38:57 435.910
UWE-3 19 Nov 19:28:47 19:31:11 14° 258° (WSW) 19:33:33 435.000/436.395/437.385
DELFI C3 19 Nov 19:29:48 19:32:20 17° 78° (ENE) 19:34:52 145.870
UNISAT 6 19 Nov 19:39:41 19:42:18 16° 102° (ESE) 19:44:56 437.425
TIGRISAT 19 Nov 19:44:31 19:47:13 17° 102° (ESE) 19:49:56 435.000
SO-50 19 Nov 20:43:41 20:45:47 13° 292° (WNW) 20:47:52 436.795
SRMSAT 19 Nov 20:56:13 20:59:02 13° 11° (N) 21:01:50 437.500
Max Valier Satellite 19 Nov 20:59:20 21:02:25 25° 259° (WSW) 21:05:29 145.860
AIST 2D 19 Nov 21:01:51 21:02:21 10° 101° (ESE) 21:02:51 435.315
EO-88 19 Nov 21:01:55 21:05:17 35° 259° (WSW) 21:08:36 145.990 - 145.960
JUGNU 19 Nov 21:02:59 21:08:41 52° 21° (NNE) 21:14:26 437.505
DELFI C3 19 Nov 21:04:26 21:06:48 16° 258° (WSW) 21:09:10 145.870
PRISM 19 Nov 21:13:38 21:17:45 81° 282° (WNW) 21:21:52 437.425
UNISAT 6 19 Nov 21:15:40 21:18:44 20° 282° (WNW) 21:21:52 437.425
TIGRISAT 19 Nov 21:20:39 21:23:37 19° 282° (WNW) 21:26:39 435.000
ESTCUBE 1 19 Nov 21:28:06 21:31:33 22° 78° (ENE) 21:34:58 437.505/2401.250
LO-87 19 Nov 21:32:24 21:35:46 36° 79° (E) 21:39:07 145.935 - 145.965
POLYITAN 1 19 Nov 21:42:52 21:44:39 12° 102° (ESE) 21:46:25 437.675
PCSat 19 Nov 21:48:44 21:53:51 44° 109° (ESE) 21:58:58 145.827
QB50P2 19 Nov 22:04:03 22:07:46 31° 102° (ESE) 22:11:28 145.880/145.840
AIST 2D 19 Nov 22:32:41 22:35:14 19° 281° (W) 22:37:47 435.315
SRMSAT 19 Nov 22:43:49 22:48:52 28° 18° (NNE) 22:53:55 437.500
JUGNU 19 Nov 22:51:57 22:57:43 56° 201° (SSW) 23:03:34 437.505
DUCHIFAT 1 19 Nov 22:56:14 23:00:21 68° 282° (WNW) 23:04:30 145.980
EO-79 19 Nov 23:01:28 23:05:22 39° 282° (WNW) 23:09:17 145.935-145.965
O/OREOS (USA 219) 19 Nov 23:05:17 23:09:13 30° 76° (ENE) 23:13:08 437.305
ESTCUBE 1 19 Nov 23:05:19 23:08:04 16° 258° (WSW) 23:10:50 437.505/2401.250
NANOSAT C BR1 19 Nov 23:05:58 23:09:51 39° 282° (WNW) 23:13:46 145.865
SPROUT 19 Nov 23:07:24 23:11:42 87° 258° (WSW) 23:16:00 437.525
POLYITAN 1 19 Nov 23:16:45 23:20:08 24° 282° (WNW) 23:23:32 437.675
VELOX 1 19 Nov 23:32:04 23:36:28 72° 258° (WSW) 23:40:51 145.980
PCSat 19 Nov 23:35:12 23:37:00 12° 290° (WNW) 23:38:46 145.827
50 SAT 19 Nov 23:51:43 23:54:34 29° 79° (ENE) 23:57:25 437.505
Oscar 19 19 Nov 23:52:18 23:57:16 48° 103° (ESE) 00:02:16 437.125/150
BUGSAT 1 19 Nov 23:56:05 23:59:58 55° 282° (WNW) 00:03:55 437.445
Gurwin Techsat 1B 20 Nov 00:03:24 00:08:23 42° 103° (ESE) 00:13:22 435.225
NO-84 20 Nov 00:03:56 00:07:56 66° 58° (ENE) 00:11:41 435.350 FM
DX 1 20 Nov 00:23:13 00:27:34 87° 81° (E) 00:31:55 434.975-435.025
BEESAT 2 20 Nov 00:26:29 00:28:01 12° 112° (ESE) 00:29:33 435.950
SRMSAT 20 Nov 00:32:13 00:38:13 72° 22° (NNE) 00:44:13 437.500
JUGNU 20 Nov 00:42:26 00:47:01 23° 196° (SSW) 00:51:38 437.505
O/OREOS (USA 219) 20 Nov 00:47:18 00:48:20 11° 255° (WSW) 00:49:22 437.305
BEESAT 3 20 Nov 00:54:30 00:58:09 38° 292° (WNW) 01:01:50 437.485
UKube-1 20 Nov 01:09:22 01:13:19 37° 258° (WSW) 01:17:18 .
M-CUBED/EXP-1 PRIME 20 Nov 01:21:19 01:25:58 79° 285° (WNW) 01:30:30 437.505
BEESAT 20 Nov 01:24:54 01:28:48 25° 78° (ENE) 01:32:40 436.000
ITUPSAT 1 20 Nov 01:33:05 01:37:18 31° 78° (ENE) 01:41:31 437.325
ITAMSAT 1 20 Nov 01:41:45 01:45:59 26° 103° (ESE) 01:50:14 435.822/435.867
AO-7 20 Nov 01:42:36 01:50:39 53° 106° (ESE) 01:58:43 .
Gurwin Techsat 1B 20 Nov 01:46:05 01:48:02 12° 283° (WNW) 01:49:59 435.225
AO-85 20 Nov 01:58:54 02:02:54 81° 112° (ESE) 02:06:45 145.980
MOZHAYETS 4 20 Nov 02:01:16 02:05:52 73° 258° (WSW) 02:10:24
BEESAT 2 20 Nov 02:02:21 02:05:28 22° 292° (WNW) 02:08:35 435.950
CUBESAT XI-V 20 Nov 02:09:34 02:12:56 20° 78° (ENE) 02:16:15 437.345
SRMSAT 20 Nov 02:21:49 02:27:28 42° 200° (SSW) 02:33:07 437.500
JUGNU 20 Nov 02:34:39 02:36:50 12° 188° (S) 02:39:01 437.505
DOVE 4 20 Nov 03:01:08 03:04:57 24° 101° (E) 03:08:36 437.250
BEESAT 20 Nov 03:03:14 03:06:17 17° 257° (WSW) 03:09:19 436.000
ITUPSAT 1 20 Nov 03:12:32 03:14:50 13° 257° (WSW) 03:17:08 437.325
YUBILEINY 20 Nov 03:15:10 03:21:53 25° 93° (E) 03:28:35 435.215
ITAMSAT 1 20 Nov 03:21:34 03:25:10 19° 283° (WNW) 03:28:46 435.822/435.867
AO-7 20 Nov 03:37:18 03:43:00 20° 287° (WNW) 03:48:45 .
CUBESAT XI-V 20 Nov 03:46:49 03:50:00 19° 258° (WSW) 03:53:12 437.345
KAITUO 1B 20 Nov 04:04:03 04:05:15 11° 102° (ESE) 04:06:28 145.475/437.950
KKS-1 20 Nov 04:04:52 04:09:17 66° 258° (WSW) 04:13:42 437.445
RS-15 20 Nov 04:12:32 04:23:39 66° 69° (ENE) 04:34:22 29.354- 29.394
XW-2D 20 Nov 04:12:47 04:16:02 26° 102° (ESE) 04:19:16 145.860 - 145.880
SRMSAT 20 Nov 04:13:03 04:17:03 18° 194° (SSW) 04:21:03 437.500
FALCONSAT 3 20 Nov 04:22:04 04:24:50 20° 143° (SE) 04:27:36 435.103
JUGNU 20 Nov 04:26:37 04:27:04 10° 177° (S) 04:27:30 437.505
XW-2B 20 Nov 04:27:08 04:30:46 42° 101° (ESE) 04:34:25 145.730 - 145.750
STARS 20 Nov 04:33:33 04:37:59 86° 262° (W) 04:42:24 437.465
DOVE 4 20 Nov 04:39:12 04:42:19 17° 283° (WNW) 04:45:20 437.250
CUTE-I 20 Nov 04:40:50 04:46:00 52° 103° (ESE) 04:51:10 437.470
NUDT-PHONESAT 20 Nov 04:48:52 04:52:33 60° 102° (ESE) 04:56:15 437.300
XW-2C 20 Nov 04:52:26 04:56:13 67° 281° (W) 05:00:03 145.795 - 145.815
LilacSat-2 20 Nov 04:52:27 04:56:16 61° 281° (W) 05:00:05 437.200
ISS 20 Nov 05:03:26 05:06:01 22° 54° (NE) 05:08:37 437.550
XW-2F 20 Nov 05:04:45 05:08:23 45° 281° (W) 05:12:04 145.980 - 146.000
YUBILEINY 20 Nov 05:10:19 05:18:16 41° 273° (W) 05:26:17 435.215
HO-68 20 Nov 05:15:00 05:21:43 45° 104° (ESE) 05:28:27 435.675
KAITUO 1B 20 Nov 05:36:05 05:38:56 21° 281° (W) 05:41:49 145.475/437.950
STRAND 1 20 Nov 05:40:25 05:45:11 39° 78° (ENE) 05:49:57 437.568
CUTE 1.7 + AOD 2 20 Nov 05:57:16 06:01:27 55° 281° (W) 06:05:39 437.475
ZACube-1 20 Nov 05:57:36 05:59:29 13° 102° (ESE) 06:01:24 437.345
nSIGHT-1 20 Nov 06:00:17 06:03:01 26° 234° (SW) 06:05:46 .
FALCONSAT 3 20 Nov 06:00:31 06:03:50 32° 323° (NW) 06:07:08 435.103
UWE-3 20 Nov 06:01:52 06:05:40 35° 102° (ESE) 06:09:34 435.000/436.395/437.385
SRMSAT 20 Nov 06:06:06 06:07:12 10° 185° (S) 06:08:17 437.500
JUGNU 20 Nov 06:13:36 06:17:08 16° 167° (SSE) 06:20:40 437.505
RS-15 20 Nov 06:28:29 06:35:33 19° 248° (WSW) 06:42:35 29.354- 29.394
SEEDS 20 Nov 06:31:02 06:34:51 33° 281° (WNW) 06:38:42 437.485
XW-2A 20 Nov 06:34:19 06:37:40 62° 281° (W) 06:41:02 145.665 - 145.685
CUBEBUG 2 20 Nov 06:38:29 06:42:01 28° 281° (WNW) 06:45:38 437.445
ISS 20 Nov 06:41:30 06:42:18 11° 234° (SW) 06:43:05 437.550
AAUSAT CUBESAT 2 20 Nov 06:42:00 06:46:08 70° 282° (WNW) 06:50:18 437.432
AO-73 20 Nov 06:47:11 06:51:20 61° 102° (ESE) 06:55:35 145.935
FO-29 20 Nov 06:57:21 07:02:49 49° 76° (ENE) 07:08:55 435.910
HO-68 20 Nov 07:04:17 07:09:07 20° 285° (WNW) 07:13:58 435.675
Oscar 11 20 Nov 07:05:22 07:09:39 67° 101° (E) 07:13:59 .
SO-50 20 Nov 07:13:24 07:18:00 54° 68° (ENE) 07:22:41 436.795
STRAND 1 20 Nov 07:22:00 07:24:03 12° 257° (WSW) 07:26:08 437.568
DELFI C3 20 Nov 07:27:47 07:30:11 16° 101° (ESE) 07:32:36 145.870
ZACube-1 20 Nov 07:32:05 07:35:28 24° 281° (W) 07:38:57 437.345
UNISAT 6 20 Nov 07:51:40 07:55:37 27° 78° (ENE) 07:59:31 437.425
SRMSAT 20 Nov 07:56:10 07:57:35 11° 174° (S) 07:58:59 437.500
TIGRISAT 20 Nov 07:56:23 08:00:22 28° 78° (ENE) 08:04:18 435.000
JUGNU 20 Nov 08:01:17 08:06:41 34° 161° (SSE) 08:12:03 437.505
FO-29 20 Nov 08:45:49 08:47:51 12° 260° (W) 08:49:57 435.910
Max Valier Satellite 20 Nov 08:49:36 08:53:00 36° 281° (W) 08:56:25 145.860
EO-88 20 Nov 08:50:59 08:54:34 56° 281° (W) 08:58:10 145.990 - 145.960
DELFI C3 20 Nov 09:02:04 09:04:39 17° 282° (WNW) 09:07:15 145.870
PRISM 20 Nov 09:16:02 09:20:06 74° 258° (WSW) 09:24:10 437.425
LO-87 20 Nov 09:20:29 09:23:15 22° 101° (ESE) 09:26:02 145.935 - 145.965
UNISAT 6 20 Nov 09:29:26 09:32:01 15° 258° (WSW) 09:34:36 437.425
TIGRISAT 20 Nov 09:34:15 09:36:44 14° 258° (WSW) 09:39:13 435.000
ESTCUBE 1 20 Nov 09:41:20 09:45:26 34° 102° (ESE) 09:49:33 437.505/2401.250
SRMSAT 20 Nov 09:43:30 09:47:40 19° 165° (SSE) 09:51:48 437.500
POLYITAN 1 20 Nov 09:48:13 09:50:48 16° 78° (ENE) 09:53:23 437.675
JUGNU 20 Nov 09:49:49 09:55:49 88° 340° (NNW) 10:01:45 437.505
QB50P2 20 Nov 10:09:59 10:13:58 38° 78° (ENE) 10:17:55 145.880/145.840
AIST 2D 20 Nov 10:17:49 10:20:55 31° 259° (W) 10:24:01 435.315
PCSat 20 Nov 10:24:39 10:29:56 58° 251° (WSW) 10:35:14 145.827
DUCHIFAT 1 20 Nov 11:01:27 11:05:37 57° 258° (WSW) 11:09:46 145.980
EO-79 20 Nov 11:07:31 11:11:21 33° 258° (WSW) 11:15:11 145.935-145.965
NANOSAT C BR1 20 Nov 11:11:36 11:15:27 33° 258° (WSW) 11:19:16 145.865
SPROUT 20 Nov 11:14:19 11:18:30 69° 282° (WNW) 11:22:43 437.525
O/OREOS (USA 219) 20 Nov 11:15:43 11:20:11 54° 104° (ESE) 11:24:39 437.305
ESTCUBE 1 20 Nov 11:21:10 11:21:57 10° 282° (WNW) 11:22:44 437.505/2401.250
POLYITAN 1 20 Nov 11:23:07 11:26:18 20° 258° (WSW) 11:29:28 437.675
50 SAT 20 Nov 11:31:05 11:32:26 12° 102° (ESE) 11:33:45 437.505
SRMSAT 20 Nov 11:31:30 11:37:11 46° 159° (SSE) 11:42:49 437.500
JUGNU 20 Nov 11:39:40 11:44:55 32° 341° (NNW) 11:50:09 437.505
VELOX 1 20 Nov 11:43:34 11:47:49 49° 282° (WNW) 11:52:05 145.980
UKube-1 20 Nov 11:44:25 11:45:49 11° 103° (ESE) 11:47:13 .
NO-84 20 Nov 11:46:19 11:49:15 42° 121° (ESE) 11:52:24 435.350 FM
BUGSAT 1 20 Nov 11:58:49 12:02:56 51° 258° (WSW) 12:07:03 437.445
BEESAT 2 20 Nov 12:19:08 12:20:46 12° 68° (ENE) 12:22:23 435.950
Oscar 19 20 Nov 12:25:57 12:31:03 65° 258° (WSW) 12:36:05 437.125/150
DX 1 20 Nov 12:32:43 12:37:03 68° 282° (WNW) 12:41:22 434.975-435.025
Gurwin Techsat 1B 20 Nov 12:41:38 12:46:54 67° 257° (WSW) 12:52:10 435.225
BEESAT 3 20 Nov 12:45:59 12:49:31 37° 248° (WSW) 12:53:03 437.485
50 SAT 20 Nov 13:02:58 13:04:15 12° 281° (WNW) 13:05:32 437.505
UKube-1 20 Nov 13:17:51 13:21:33 28° 282° (WNW) 13:25:14 .
SRMSAT 20 Nov 13:20:31 13:26:23 64° 339° (NNW) 13:32:15 437.500
M-CUBED/EXP-1 PRIME 20 Nov 13:21:03 13:24:18 84° 253° (WSW) 13:27:38 437.505
JUGNU 20 Nov 13:31:15 13:34:27 15° 348° (NNW) 13:37:38 437.505
BEESAT 20 Nov 13:45:56 13:50:28 47° 102° (ESE) 13:55:03 436.000
ITUPSAT 1 20 Nov 13:54:43 13:59:23 61° 102° (ESE) 14:04:05 437.325
BEESAT 2 20 Nov 13:55:13 13:58:13 21° 248° (WSW) 14:01:12 435.950
AO-7 20 Nov 14:08:47 14:17:07 83° 74° (ENE) 14:25:24 .
AO-85 20 Nov 14:09:49 14:14:55 57° 248° (WSW) 14:20:10 145.980
ITAMSAT 1 20 Nov 14:15:45 14:20:57 70° 77° (ENE) 14:26:09 435.822/435.867
MOZHAYETS 4 20 Nov 14:18:00 14:22:18 42° 282° (WNW) 14:26:39
CUBESAT XI-V 20 Nov 14:26:42 14:31:00 36° 102° (ESE) 14:35:18 437.345
SRMSAT 20 Nov 15:11:00 15:15:44 25° 343° (NNW) 15:20:31 437.500
DOVE 4 20 Nov 15:20:12 15:24:34 43° 77° (ENE) 15:29:10 437.250
YUBILEINY 20 Nov 15:46:59 15:55:25 50° 87° (E) 16:03:48 435.215
RS-15 20 Nov 15:53:16 16:04:51 57° 110° (ESE) 16:16:43 29.354- 29.394
FALCONSAT 3 20 Nov 16:05:08 16:07:49 19° 37° (NE) 16:10:32 435.103
XW-2D 20 Nov 16:06:43 16:09:32 20° 79° (E) 16:12:20 145.860 - 145.880
CUBESAT XI-V 20 Nov 16:06:52 16:08:04 11° 282° (WNW) 16:09:17 437.345
AO-7 20 Nov 16:08:07 16:09:22 10° 252° (WSW) 16:10:37 .
KKS-1 20 Nov 16:17:25 16:21:36 43° 282° (WNW) 16:25:48 437.445
XW-2B 20 Nov 16:20:56 16:24:19 32° 79° (E) 16:27:39 145.730 - 145.750
ISS 20 Nov 16:38:07 16:39:57 14° 126° (SE) 16:41:47 437.550
NUDT-PHONESAT 20 Nov 16:40:08 16:43:35 40° 79° (E) 16:47:01 437.300
STARS 20 Nov 16:44:20 16:48:37 60° 282° (WNW) 16:52:54 437.465
XW-2C 20 Nov 16:46:04 16:49:49 87° 260° (W) 16:53:32 145.795 - 145.815
LilacSat-2 20 Nov 16:46:49 16:50:34 76° 258° (WSW) 16:54:18 437.200
XW-2F 20 Nov 16:57:45 17:01:26 60° 259° (W) 17:05:04 145.980 - 146.000
SRMSAT 20 Nov 17:03:14 17:05:37 12° 351° (N) 17:08:01 437.500
SEEDS 20 Nov 17:03:52 17:04:32 10° 78° (ENE) 17:05:12 437.485
HO-68 20 Nov 17:06:49 17:13:19 38° 76° (ENE) 17:19:49 435.675
JUGNU 20 Nov 17:12:44 17:14:39 12° 9° (N) 17:16:35 437.505
CUBEBUG 2 20 Nov 17:14:53 17:18:09 19° 79° (E) 17:21:22 437.445
CUTE-I 20 Nov 17:20:06 17:25:18 53° 258° (WSW) 17:30:30 437.470
KAITUO 1B 20 Nov 17:27:50 17:30:58 26° 259° (W) 17:34:05 145.475/437.950
nSIGHT-1 20 Nov 17:32:03 17:35:10 49° 305° (NW) 17:38:17 .
XW-2D 20 Nov 17:42:25 17:43:25 11° 258° (WSW) 17:44:25 145.860 - 145.880
FALCONSAT 3 20 Nov 17:43:26 17:46:49 34° 217° (SW) 17:50:13 435.103
YUBILEINY 20 Nov 17:45:54 17:51:48 20° 267° (W) 17:57:44 435.215
CUTE 1.7 + AOD 2 20 Nov 18:03:43 18:07:42 43° 259° (WSW) 18:11:41 437.475
ZACube-1 20 Nov 18:06:17 18:09:26 19° 79° (E) 18:12:33 437.345
